Weather Roundup
Issued by NWS

Home | Current Version | Previous Version | Text Only | Print | Product List | Glossary On
Versions: 1 2 3 4 5 6 7 8 9 10 11 12 13 14 15 16 17 18 19 20 21 22 23 24 25 26 27 28 29 30 31 32 33 34 35 36 37 38 39 40 41 42 43 44 45 46 47 48 49 50
984
NZUS93 KARX 211110
HRRWXR

CURRENT HOURLY OBSERVATIONS ACROSS
MUCH OF THE UPPER MISSISSIPPI VALLEY
NATIONAL WEATHER SERVICE LA CROSSE WI
500 AM CST TUE FEB 21 2017


...SOUTHEAST MINNESOTA...


CITY           SKY/WX    TMP DP  RH WIND       PRES   REMARKS
ROCHESTER      FOG       33  33 100 SW5       29.91R VSB 1/2 WCI  29
ROCHESTER/MAYO FAIR      38  38 100 W5        29.92R WCI  35
WINONA         CLOUDY    37  36  93 W6        29.92S WCI  33
AUSTIN         FOG       34  30  86 CALM      29.91R VSB<1/4
ALBERT LEA     FOG       34  34 100 CALM      29.90S VSB 1/4
DODGE CENTER   SNOW      34  34 100 W6        29.90R VSB<1/4 WCI  29
PRESTON        CLEAR     35  34  94 CALM      29.92R FOG
OWATONNA       PTCLDY    34  34 100 S3        29.90R FOG
FARIBAULT      SNOW      34  34 100 S3        29.91R VSB<1/4
$$

...ELSEWHERE IN MINNESOTA...


CITY           SKY/WX    TMP DP  RH WIND       PRES   REMARKS
MINNEAPOLIS    PTCLDY    36  33  89 CALM      29.88S FOG
INTNL FALLS    CLOUDY    33  30  88 W8        29.75R WCI  26
DULUTH         CLOUDY    34  33  96 W10       29.78R WCI  26
RED WING       CLEAR     36  34  93 CALM      29.91R FOG
REDWOOD FALLS  CLEAR     33  30  88 S3        29.87R
MANKATO        FOG       32  32 100 S6        29.90R VSB 1/2 WCI  26
WORTHINGTON    CLEAR     36  35  96 SW9       29.90R WCI  29
FAIRMONT       PTCLDY    32  32 100 S6        29.90S WCI  26
$$

...SOUTHWEST WISCONSIN...


CITY           SKY/WX    TMP DP  RH WIND       PRES   REMARKS
LA CROSSE      MOCLDY    38  36  92 SW3       29.91R
PRAIRIE DU CHI CLEAR     39  37  91 CALM      29.94S
BOSCOBEL       CLOUDY    43  41  93 S6        29.93R
LONE ROCK      PTCLDY    46  42  86 NW8       29.92R
PLATTEVILLE    CLOUDY    42  42 100 W7        29.94R
FORT MC COY    CLOUDY    43  41  94 CALM        N/A
CAMP DOUGLAS   CLOUDY    43  41  91 W9        29.88S
MAUSTON-NEW LI MOSUNNY   44  41  90 W6        29.88S
VIROQUA        CLOUDY    41  40  99 W5        29.90S
WIS DELLS      CLOUDY    46  43  89 W6        29.90R
$$

...ELSEWHERE IN WISCONSIN...


CITY           SKY/WX    TMP DP  RH WIND       PRES   REMARKS
MILWAUKEE      CLOUDY    55  52  89 SW10      29.87R
MADISON        MOCLDY    51  48  89 W7        29.88R
GREEN BAY      CLOUDY    52  49  89 W18       29.81R
EAU CLAIRE     CLOUDY    39  36  89 W7        29.89R WCI  34
BLACK RVR FLS  CLOUDY    43  43  99 SW6       29.90R
MEDFORD        CLOUDY    39  37  94 W9        29.84R WCI  33
WAUSAU         CLOUDY    43  41  93 W12       29.82R
WIS RAPIDS     CLOUDY    46  44  93 W7        29.87R
MARSHFIELD     CLOUDY    41  38  89 NW15G21   29.85R
RICE LAKE      CLOUDY    37  35  94 W6        29.88S WCI  32
$$

...NORTHEAST IOWA...


CITY           SKY/WX    TMP DP  RH WIND       PRES   REMARKS
WATERLOO       FOG       33  32  96 SW3       29.95S VSB 1/4
DUBUQUE        PTCLDY    44  42  93 NW9       29.94R
DECORAH        CLEAR     37  37 100 W5        29.92R FOG     WCI  34
MASON CITY     FOG       33  33 100 SW6       29.93F VSB 1   WCI  28
CHARLES CITY   FOG       36  36 100 W3        29.93S VSB 1/4
OELWEIN        FOG       34  34 100 CALM      29.94S VSB<1/4
$$

...ELSEWHERE IN IOWA...


CITY           SKY/WX    TMP DP  RH WIND       PRES   REMARKS
DES MOINES     CLEAR     41  39  93 S5        29.96S
IOWA CITY      MOCLDY    49  43  80 N7        29.96R
FORT DODGE     MOCLDY    28  27  93 SE3       29.93S VSB 3/4
MARSHALLTOWN   FOG       34  34 100 CALM      29.94F VSB 1/4
CEDAR RAPIDS   PTCLDY    39  39 100 NW5       29.94R
$$

...NORTHERN ILLINOIS...


CITY           SKY/WX    TMP DP  RH WIND       PRES   REMARKS
CHICAGO-OHARE  LGT RAIN  55  51  86 S8        29.90S
CHICAGO-MIDWAY LGT RAIN  54  50  86 S7        29.91S
MOLINE         CLOUDY    54  49  83 NW8       29.93R
ROCKFORD       CLOUDY    55  53  93 SW5       29.92R
PEORIA         LGT RAIN  55  55 100 SE6       29.93S FOG
$$

NOTE: "FAIR" INDICATES FEW OR NO CLOUDS BELOW 12,000 FEET WITH NO
SIGNIFICANT WEATHER AND/OR OBSTRUCTIONS TO VISIBILITY. WIND
SPEEDS ARE IN MILES-PER-HOUR.




USA.gov is the U.S. government's official web portal to all federal, state and local government web resources and services.